This demonstration page uses our WeatherBlox Daily Observations layout. Learn more.

Left ArrowRight Arrow

Hourly Observations for August 14, 2017

Temp ( °F °C ) Dew Point ( °F °C ) Humidity (%) Winds ( mph kmh ) Pressure ( in mb ) Visibility ( mi km ) Precip ( " mm )
12:53 am 00:53 Clear 78 25.6 66 18.9 67 67 SE 8 13 29.95 1014 10 16 0.00 0.00
1:53 am 01:53 Clear 78 25.6 65 18.3 64 64 SE 5 7 29.93 1014 10 16 0.00 0.00
2:53 am 02:53 Clear 77 25 65 18.3 66 66 ESE 3 6 29.92 1013 10 16 0.00 0.00
3:53 am 03:53 Clear 77 25 66 18.9 69 69 E 7 11 29.92 1013 10 16 0.00 0.00
4:53 am 04:53 Mostly Clear 77 25 67 19.4 71 71 E 5 7 29.92 1013 10 16 0.00 0.00
5:53 am 05:53 Partly Cloudy 76 24.4 66 18.9 72 72 ENE 7 11 29.93 1014 10 16 0.00 0.00
6:53 am 06:53 Sunny 76 24.4 64 17.8 67 67 E 3 6 29.95 1014 10 16 0.00 0.00
7:53 am 07:53 Mostly Sunny 80 26.7 68 20 67 67 SE 3 6 29.96 1015 10 16 0.00 0.00
8:53 am 08:53 Mostly Sunny 82 27.8 68 20 63 63 WSW 6 9 29.96 1015 10 16 0.00 0.00
9:53 am 09:53 Mostly Sunny 83 28.3 69 20.6 63 63 SW 9 15 29.96 1015 10 16 0.00 0.00
10:53 am 10:53 Mostly Sunny 83 28.3 69 20.6 63 63 SW 8 13 29.96 1015 10 16 0.00 0.00
11:53 am 11:53 Mostly Sunny 85 29.4 68 20 57 57 WSW 9 15 29.96 1015 10 16 0.00 0.00
12:53 pm 12:53 Mostly Sunny 85 29.4 69 20.6 59 59 WSW 10 17 29.94 1014 10 16 0.00 0.00
1:53 pm 13:53 Mostly Sunny 86 30 69 20.6 57 57 WSW 13 20 29.93 1013 10 16 0.00 0.00
2:53 pm 14:53 Partly Cloudy 84 28.9 71 21.7 65 65 W 10 17 29.92 1013 10 16 0.00 0.00
3:53 pm 15:53 Partly Cloudy 85 29.4 69 20.6 59 59 W 12 19 29.91 1013 10 16 0.00 0.00
4:53 pm 16:53 Sunny 84 28.9 68 20 59 59 WSW 9 15 29.90 1013 10 16 0.00 0.00
5:53 pm 17:53 Partly Cloudy 81 27.2 69 20.6 67 67 WSW 7 11 29.91 1013 10 16 0.00 0.00
6:53 pm 18:53 Partly Cloudy 81 27.2 68 20 65 65 S 6 9 29.92 1013 10 16 0.00 0.00
7:53 pm 19:53 Partly Cloudy 81 27.2 67 19.4 62 62 SE 5 7 29.94 1014 10 16 0.00 0.00
8:53 pm 20:53 Clear 81 27.2 62 16.7 53 53 Calm 29.94 1014 10 16 0.00 0.00
9:53 pm 21:53 Mostly Cloudy 80 26.7 65 18.3 60 60 NW 5 7 29.96 1015 10 16 0.00 0.00
10:53 pm 22:53 Clear 79 26.1 65 18.3 62 62 SE 7 11 29.96 1015 10 16 0.00 0.00
11:53 pm 23:53 Mostly Cloudy 79 26.1 66 18.9 65 65 SE 7 11 29.94 1014 10 16 0.00 0.00

Powered by AerisWeather